SCP
12 13 14 15 14 15 14 14 15 14 12 11 10 9 8 8 9 10 12 15 17 18 16 13 10 9 8 8 8 9 9 8 6 5 4 4 3 2 2 3 3 3 3
10 10 11 13 14 14 14 13 13 12 11 10 9 9 9 8 9 11 13 14 16 17 15 13 11 9 8 9 10 9 9 8 7 6 5 4 3 2 2 3 3 3 3
8 8 9 10 12 13 12 11 11 10 8 8 8 8 9 9 10 12 13 13 14 14 13 11 10 9 9 9 9 9 8 8 8 7 6 4 3 2 2 2 3 3 3
7 7 7 7 9 9 9 9 9 8 6 6 7 8 8 9 11 12 13 12 11 11 10 10 10 9 9 8 8 7 7 7 8 7 6 4 3 2 2 2 2 2 2
4 4 4 5 5 5 5 6 6 6 5 6 7 7 8 9 10 11 11 10 9 8 8 9 9 9 8 7 7 6 6 7 7 7 6 4 3 2 1 1 1 1 1
2 2 2 3 3 3 3 3 4 4 4 5 6 7 8 9 9 9 9 9 8 8 8 8 9 8 7 6 6 5 5 5 5 5 5 3 2 2 1 1 1 1 1
1 1 1 1 1 2 2 2 3 4 4 4 5 6 8 9 9 9 9 8 8 8 8 8 8 8 7 6 5 4 4 3 3 3 3 2 2 1 1 1 1 1 1
0 0 1 1 1 1 1 2 3 3 4 4 4 6 7 8 8 8 8 7 7 7 7 7 7 7 6 4 4 3 3 2 2 2 2 2 2 1 1 1 1 0 0
0 0 0 1 1 1 2 2 3 4 4 4 4 4 5 6 6 7 7 7 7 6 6 6 6 5 4 3 3 3 2 2 2 2 2 2 1 1 1 1 1 0 0
0 1 1 1 2 2 2 3 3 4 4 4 4 4 4 4 5 6 6 7 7 6 6 5 4 4 3 3 3 2 2 2 2 2 1 1 1 1 1 1 1 0 0
0 1 1 1 2 3 3 3 3 4 4 4 4 3 3 4 5 5 5 6 6 6 5 4 3 2 2 2 2 2 2 1 1 1 1 1 1 1 1 1 1 1 0
1 1 2 2 2 2 3 3 3 4 4 4 3 3 3 3 4 4 4 5 5 5 4 3 2 2 1 1 1 1 1 1 1 1 1 1 1 1 1 1 1 1 0
1 2 2 3 3 3 2 2 3 3 3 3 3 2 2 2 3 3 3 3 3 2 2 1 1 1 1 1 1 1 1 1 1 1 1 1 0 0 1 1 1 0 0
1 2 3 4 3 3 3 2 2 2 3 3 3 2 2 2 2 2 2 1 1 1 0 0 0 0 1 1 1 1 1 1 1 0 0 0 0 0 0 0 0 0 0
1 2 3 4 4 3 3 3 3 2 2 2 2 2 2 1 1 1 1 0 0 0 0 0 0 0 0 0 0 0 0 0 0 0 0 0 0 0 0 0 0 0 0
1 2 2 3 3 3 3 3 3 3 2 2 1 1 1 1 1 1 0 0 0 0 0 0 0 0 0 0 0 0 0 0 0 0 0 0 0 0 0 0 0 0 0
1 2 2 3 3 3 3 3 3 3 2 2 1 1 1 1 1 1 0 0 0 0 0 0 0 0 0 0 0 0 0 0 0 0 0 0 0 0 0 0 0 0 0
1 2 2 2 2 3 3 3 3 3 2 1 1 1 1 1 1 1 0 0 0 0 0 0 0 0 0 0 0 0 0 0 0 0 0 0 0 0 0 0 0 0 0
1 2 2 2 3 3 3 3 3 2 2 1 1 1 1 1 1 1 0 0 0 0 0 0 0 0 0 0 0 0 0 0 0 0 0 0 0 0 0 0 0 0 0
2 2 2 3 3 4 4 3 2 2 2 1 1 1 1 1 1 1 0 0 0 0 0 0 0 0 0 0 0 0 0 0 0 0 0 0 0 0 0 0 0 0 0
2 2 3 3 4 5 4 3 2 2 2 1 1 1 1 1 0 0 0 0 0 0 0 0 0 0 0 0 0 0 0 0 0 0 0 0 0 0 0 0 0 0 0
2 2 2 4 5 5 4 3 3 2 2 1 1 1 1 1 0 1 0 0 0 0 0 0 0 0 0 0 0 0 0 0 0 0 0 0 0 0 0 0 0 0 0
1 1 2 3 4 4 4 3 3 2 2 1 1 1 1 1 1 1 0 0 0 0 0 0 0 0 0 0 0 0 0 0 0 0 0 0 0 -0 0 0 0 0 0
1 1 2 2 3 4 4 3 3 2 2 1 1 1 1 1 1 1 1 0 0 0 0 0 0 0 0 0 0 0 0 0 0 0 0 0 0 0 0 0 0 0 0
1 1 1 2 3 3 4 3 3 2 2 1 1 1 1 1 1 1 0 0 0 0 0 0 0 0 0 0 0 0 0 0 0 0 0 0 0 0 0 0 0 0 0
0 1 1 2 2 3 3 3 3 2 2 1 1 1 1 1 1 0 0 0 0 0 0 0 0 0 0 0 0 0 0 0 0 0 0 0 0 0 0 0 0 0 0
Wind_Speed
8 9 8 6 3 2 2 3 3 4 4 4 5 6 7 6 5 5 5 5 5 5 4 4 3 3 3 3 3 3 4 4 3 4 6 7 9 11 9 7 6 6 5
5 6 6 6 6 4 2 1 2 3 4 4 4 4 4 4 5 4 3 4 5 5 5 5 4 4 3 3 4 3 3 4 3 3 4 5 6 6 5 3 3 4 3
4 5 5 6 6 6 5 4 3 3 4 5 4 5 4 4 5 4 4 5 5 5 5 5 5 4 4 4 5 4 5 4 4 3 3 3 4 5 5 5 4 3 2
5 5 4 5 5 5 4 4 4 3 4 4 5 7 6 7 7 5 4 5 6 6 6 6 6 5 5 5 6 5 4 4 4 4 4 5 4 3 4 4 4 5 4
4 3 3 2 3 4 4 3 3 4 4 4 5 6 7 6 6 5 6 5 5 6 7 7 6 6 5 5 6 4 4 3 4 4 3 3 4 5 4 5 5 4 4
2 1 1 1 2 3 3 3 3 3 4 5 5 6 7 7 7 7 6 5 5 6 8 7 6 6 6 6 5 5 5 5 4 3 3 3 3 2 3 4 5 4 4
1 1 2 2 2 3 3 3 3 4 4 4 5 6 6 7 8 7 6 5 5 5 7 7 6 6 5 5 4 4 4 4 4 3 2 2 2 2 2 3 4 5 4
4 3 4 4 4 5 4 4 3 3 3 4 4 5 6 5 5 5 5 5 4 4 5 6 6 6 6 6 5 4 4 4 3 3 2 2 2 2 2 2 3 4 3
4 5 6 5 5 5 5 5 4 4 4 4 5 5 5 4 5 5 4 3 2 3 4 5 5 5 5 4 3 3 3 2 2 2 2 1 2 2 2 2 2 2 3
6 6 5 4 3 3 4 4 4 4 4 5 4 4 3 3 3 3 3 2 1 0 2 3 3 3 3 3 3 2 2 2 2 2 0 1 1 1 2 2 2 1 2
6 5 4 4 4 4 4 3 3 3 3 4 3 3 3 3 2 2 2 3 3 3 1 1 1 1 2 2 2 2 2 1 1 1 2 2 3 3 3 3 2 2 2
6 5 5 4 4 4 4 4 4 3 2 2 2 2 2 2 2 3 4 4 5 5 5 3 2 1 0 0 1 0 2 3 4 4 5 5 4 4 4 3 4 3 2
6 4 3 3 4 4 4 4 3 3 2 2 1 1 2 2 3 3 4 4 4 4 4 4 4 3 3 2 2 4 5 6 6 6 6 6 6 6 4 5 5 4 4
5 4 3 3 3 3 4 4 3 2 2 2 1 1 2 2 3 3 3 3 3 3 3 3 3 3 3 3 3 5 6 7 7 7 8 7 7 6 6 7 7 6 4
7 5 3 2 3 3 3 4 4 2 2 2 2 2 3 3 3 3 3 2 2 2 1 1 1 2 3 4 4 5 7 6 7 7 7 7 8 10 8 7 6 7 7
9 6 4 3 3 4 4 4 4 3 3 3 3 3 5 5 4 4 3 2 2 1 0 0 2 3 5 7 7 6 5 5 5 5 5 6 6 7 8 9 9 9 7
9 6 4 3 3 4 4 4 4 4 4 4 5 5 6 6 6 6 5 3 2 2 1 2 5 6 6 9 9 7 5 5 5 5 4 6 8 7 4 2 4 6 7
10 7 4 3 3 4 4 5 5 5 5 6 6 6 7 7 7 6 6 5 3 3 2 4 6 6 6 9 10 7 6 5 6 6 6 6 6 8 7 3 3 4 4
10 7 5 5 4 5 5 6 6 6 6 7 7 7 8 8 8 8 6 5 4 4 4 5 6 6 4 7 9 7 3 4 6 7 7 7 6 10 10 5 5 5 3
11 8 7 6 5 5 5 6 7 7 7 7 6 7 8 9 9 8 7 5 5 5 5 6 6 6 5 5 7 7 1 3 5 6 7 10 8 9 10 6 6 6 5
14 10 8 7 6 6 7 8 8 7 6 6 6 7 7 8 9 8 7 7 6 6 6 7 6 6 6 5 5 6 3 1 3 6 5 4 6 7 7 5 4 4 6
17 13 9 7 6 8 8 9 8 7 6 6 6 7 8 9 9 9 8 7 7 7 6 6 6 5 5 5 5 5 6 5 3 6 6 4 4 4 4 3 5 9 8
19 15 14 9 7 8 10 11 9 7 7 6 7 7 8 7 8 10 10 9 7 7 8 7 7 6 6 5 5 4 5 7 5 5 7 7 4 1 2 3 4 5 4
19 17 16 14 9 7 10 11 9 8 8 7 7 7 7 7 9 8 8 8 9 8 8 8 8 7 7 6 5 4 4 5 5 5 5 5 4 4 5 4 3 1 2
16 16 16 15 13 10 10 11 10 9 9 8 8 8 8 8 8 8 6 8 6 7 8 7 8 8 8 8 10 7 5 4 4 5 4 3 4 4 4 3 2 3 2
15 15 16 16 16 13 11 10 10 10 9 9 8 8 8 7 7 8 6 5 4 6 7 6 7 6 10 15 14 11 10 8 7 4 4 5 5 4 3 2 3 3 3
Wind_Direction
25 28 17 11 28 95 139 172 205 209 222 225 220 220 229 234 234 227 213 196 186 186 181 194 181 189 204 218 232 250 266 270 270 276 281 274 268 263 255 246 241 243 253
49 39 23 13 7 12 12 232 240 243 237 244 250 249 251 249 241 233 209 199 191 190 194 197 198 200 207 221 229 236 247 259 253 247 269 282 277 273 285 285 260 254 248
58 48 37 22 9 6 359 344 338 306 281 274 266 265 261 256 253 236 219 211 206 207 211 207 204 204 212 223 226 222 233 247 261 252 248 269 277 328 309 317 312 307 295
75 58 44 31 8 358 353 349 338 322 307 294 274 268 261 257 254 244 230 216 212 214 216 216 209 207 216 219 226 225 224 234 254 266 250 250 279 290 304 313 323 332 323
84 68 39 33 356 335 336 337 337 326 314 303 290 281 275 273 275 266 246 229 217 216 222 222 219 219 224 224 227 226 221 223 239 251 272 285 272 249 258 289 310 318 315
143 99 14 9 335 316 312 318 320 315 308 300 296 290 289 288 283 271 255 237 223 218 216 218 217 220 222 220 223 224 230 227 237 250 259 265 271 284 267 286 305 308 308
269 280 305 302 291 289 295 296 296 298 302 301 300 301 296 291 282 276 266 255 236 221 211 209 209 214 214 211 211 217 233 230 231 241 259 274 282 290 292 295 305 308 303
268 286 297 294 298 307 307 304 306 303 306 307 309 304 297 291 289 285 279 267 250 233 211 205 208 209 209 209 200 212 220 215 219 243 258 287 292 306 303 301 312 315 320
293 301 299 305 316 321 321 319 319 318 322 312 303 292 294 295 300 298 281 270 260 237 209 202 206 208 207 208 195 211 227 210 211 238 249 273 320 312 309 310 312 321 329
304 304 306 311 312 311 308 311 315 321 316 308 306 307 323 321 316 321 334 332 301 256 194 190 196 203 206 209 206 223 210 201 215 227 182 42 351 336 319 318 332 350 336
292 304 314 318 320 311 310 316 314 315 317 319 319 324 331 337 345 359 9 26 35 40 37 71 145 194 213 217 210 215 180 185 168 104 95 83 55 21 0 358 5 13 360
300 300 306 316 319 312 306 305 307 305 304 311 327 349 359 9 21 43 47 49 52 47 41 36 34 29 323 261 230 242 99 94 84 73 70 59 57 42 30 9 21 17 15
304 294 290 296 298 294 289 292 296 291 294 303 306 67 80 74 63 62 58 54 56 59 52 37 34 30 32 26 44 72 81 80 76 71 66 57 47 32 21 35 22 18 24
303 285 249 246 263 270 270 274 278 267 255 251 255 154 138 126 108 89 75 66 54 56 54 42 42 42 37 41 64 83 86 85 79 71 66 59 51 31 18 41 22 18 18
300 290 259 228 238 250 250 246 247 237 241 243 224 176 156 147 134 120 115 107 88 81 51 52 63 66 68 63 77 100 105 102 97 92 89 82 77 63 52 53 33 29 28
295 294 290 261 241 242 248 240 232 223 219 223 219 182 164 162 157 154 151 146 145 151 207 218 103 90 82 70 75 97 105 102 101 106 111 114 84 78 77 74 63 53 48
304 298 288 264 234 232 230 228 226 218 213 224 214 191 184 179 177 173 165 168 168 168 181 122 101 94 78 69 67 77 99 89 80 71 63 77 66 48 31 70 89 73 66
316 308 292 270 241 225 217 215 222 220 218 222 216 197 192 186 180 179 179 180 176 172 163 121 110 107 84 62 53 58 95 88 78 67 64 72 54 27 5 4 62 80 65
314 301 274 258 235 219 218 217 223 226 227 226 215 198 191 186 182 186 182 179 173 168 157 134 126 117 98 61 47 32 97 97 87 74 53 62 57 22 14 23 40 42 25
306 288 262 244 224 209 208 218 227 230 231 227 212 196 189 186 184 183 178 176 172 169 162 147 141 140 129 83 54 21 338 136 120 106 87 67 60 39 29 31 35 22 350
311 298 271 236 216 204 202 215 226 231 231 220 203 189 185 184 180 177 175 172 174 173 170 152 152 151 138 116 69 37 26 25 147 137 113 86 67 52 33 32 39 359 322
321 315 301 270 222 200 202 213 220 222 221 210 199 189 184 187 177 171 173 174 175 170 167 158 158 149 145 137 112 79 56 22 54 98 111 115 98 60 20 16 0 350 345
326 325 315 292 254 212 205 213 212 208 209 203 197 191 191 190 169 171 175 175 177 177 172 172 172 166 158 131 129 110 71 58 77 95 121 141 152 130 290 280 322 349 13
328 327 323 316 297 250 220 210 203 198 201 199 193 186 186 184 174 176 178 180 182 184 182 182 182 174 164 161 164 163 141 116 122 134 144 170 201 251 281 274 254 193 65
322 321 320 314 310 295 252 216 201 196 198 196 191 188 188 186 179 180 178 188 187 193 188 188 182 174 172 170 172 178 171 179 161 152 163 198 212 224 230 211 150 101 83
315 317 317 315 314 309 285 240 204 194 193 196 193 191 188 184 181 171 151 68 125 139 148 161 165 158 148 141 133 124 118 114 131 161 206 214 217 208 185 150 137 119 87